sat.trackr.live / text

‹ back to catalog

LILACSAT-2

NORAD 40908 · 2015-049K

PAYLOAD ACTIVE UNKNOWN

§ Identity

Operator
Country
PRC
Launch date
2015-09-19
Launch site
TAISC
Launch vehicle
Mass (kg)
RCS (m²)
0.10

Purposes: comms

External: N2YO · Heavens-Above · Gunter

§ Orbital elements

Epoch: 2026-05-25T04:13:12.962208Z

Period
92.87 min
Inclination
97.4677°
Eccentricity
0.0006205
Mean motion
15.50580403 rev/d
Perigee alt
410.8 km
Apogee alt
419.2 km
Semi-major
6,793.2 km
B*
2.8199e-4
RAAN
181.1540°
Arg perigee
353.9873°
Mean anomaly
6.1303°
Rev number
59,218

§ Raw data

LILACSAT-21 40908U 15049K   26145.17584447  .00016053  00000+0  28199-3 0  99942 40908  97.4677 181.1540 0006205 353.9873   6.1303 15.50580403592183

JSON: /api/v1/satellites/40908 · /tle

For live sub-satellite position, see the globe view (requires WebGL).

§ Visibility from observer

Set your observer location to see the next 7 days of passes ≥ 10°. The values pass through the URL so the page stays shareable.

No JS? Fill the form by hand. The geolocation button needs JavaScript.

§ Radio — SatNOGS DB

ModeDescriptionDownlinkUplink
AFSK APRS Digipeater 144.390 MHz 144.390 MHz
BPSK BPSK Telemetry 437.200 MHz
CW CW Beacon 437.200 MHz
GFSK GFSK Telemetry 437.225 MHz
FM FM Transponder (inactive) 437.200 MHz 144.350 MHz

5 transmitters · refreshed weekly from db.satnogs.org